Location: Newark
(58.8333°N, 23.5833°E)
Time: 02:34:06
(UTC+00:00)

Vanguard 2 - Pass Details

Date: 01 December 2019
Orbit: 553 x 2938 km, 32.9° (Epoch: 06 December)

Event Time Altitude Azimuth Distance (km) Brightness Sun altitude
Rises 05:30:08 0° 244° (WSW) 6,583 11.9 -9.3°
Reaches altitude 10° 05:36:38 10° 230° (SW) 5,260 11.6 -8.5°
Maximum altitude 05:45:19 19° 194° (SSW) 3,979 11.4 -7.6°
Drops below altitude 10° 05:52:13 10° 155° (SSE) 4,033 12.2 -6.8°
Sets 05:56:14 0° 138° (SE) 4,609 13.3 -6.4°
